Theta_e
290 291 290 287 288 288 288 288 287 286 287 286 286 287 289 288 285 284 289 286 287 290 292 293 291 290 292 293 292 292 291 288 288 289 290 291 292 289 284 285 285 285 285 285 285 285 285 285 285 285 285 286 286 286 287 286 285 285 285 284 284 284 284 285 284 284 282 282 281 280 280 279 279 279 279 279 279 278 278 278 279 278 278 279 278 278 278
290 290 290 286 287 286 285 287 288 288 287 287 288 289 290 289 288 290 291 287 288 293 290 293 294 293 293 292 291 289 290 293 294 292 292 292 292 292 290 288 287 287 286 285 285 285 284 285 285 285 285 285 286 286 286 286 285 285 284 284 284 284 284 284 285 284 283 282 281 280 279 279 279 279 279 279 279 279 279 279 279 278 278 278 278 278 278
288 290 291 288 286 286 285 285 287 288 288 288 289 289 290 289 289 290 290 289 288 294 290 290 291 292 291 291 291 294 296 295 294 294 294 293 293 293 292 291 289 288 286 285 285 285 285 285 285 285 286 286 286 286 286 285 285 284 284 284 284 284 284 284 284 283 283 282 281 280 280 280 279 279 279 279 279 279 279 279 278 278 278 278 278 278 278
286 289 289 288 284 282 284 283 284 285 286 285 287 287 289 287 287 288 288 287 288 292 293 294 291 288 291 292 293 294 294 293 292 292 292 292 292 292 293 292 291 288 286 286 285 286 286 286 285 285 285 285 285 285 286 285 285 284 284 284 284 284 283 283 283 283 283 282 281 281 280 280 280 279 279 279 279 279 279 278 278 278 278 278 278 278 278
285 289 288 283 282 284 283 284 286 288 288 289 289 290 290 290 291 288 286 287 294 293 288 290 288 289 291 292 293 293 293 293 292 291 291 291 292 292 293 292 292 290 289 288 287 287 287 286 286 286 286 285 285 285 285 285 284 283 283 283 283 283 282 282 282 282 282 282 282 281 281 281 280 280 279 279 279 279 278 279 278 278 278 278 278 278 278
285 288 282 283 283 278 281 293 295 292 289 288 286 287 289 290 291 290 293 294 295 295 290 291 291 289 292 294 296 296 294 292 289 289 290 291 293 293 292 291 291 291 290 289 288 288 288 287 287 286 285 285 285 285 285 284 283 283 283 282 283 282 281 281 281 281 282 282 282 281 281 281 280 279 279 279 279 279 279 279 278 278 278 278 278 278 278
285 285 284 282 277 280 292 294 294 294 293 291 290 291 291 291 292 292 291 292 293 295 292 292 293 293 294 294 293 290 288 289 291 293 294 292 290 290 291 290 290 290 290 289 288 287 287 285 284 284 284 284 284 284 284 283 283 282 282 282 282 282 281 281 280 281 282 282 282 281 281 280 280 279 279 279 279 279 279 279 278 278 278 278 278 278 278
286 283 284 277 280 288 289 289 290 288 292 292 290 288 291 292 291 292 291 293 295 296 295 294 293 291 290 288 288 287 286 289 293 293 292 292 290 291 291 290 290 289 289 289 289 288 284 284 284 284 284 284 283 283 283 283 282 282 282 281 281 281 281 280 280 281 282 282 282 281 280 280 279 279 279 279 279 279 279 279 278 278 278 278 278 278 278
282 285 284 284 289 287 289 289 288 289 290 288 288 285 288 292 293 292 292 293 295 295 294 294 293 289 288 289 293 286 290 292 290 292 293 292 292 289 288 287 288 287 287 287 287 284 283 284 283 283 283 283 283 282 282 281 281 281 281 281 281 281 280 280 281 281 282 282 281 281 280 280 279 279 279 279 279 279 278 279 278 278 278 278 278 278 278
287 284 283 283 283 280 286 292 288 292 292 293 293 291 289 294 293 294 293 293 293 293 293 293 292 289 290 290 293 288 291 288 286 285 285 284 284 284 285 285 284 283 283 284 284 283 282 282 282 282 282 282 282 281 281 280 280 280 280 280 280 280 280 280 281 281 281 281 281 280 280 279 279 279 279 278 277 277 278 278 278 278 278 278 278 278 278
285 283 281 282 280 284 290 291 289 290 291 293 290 289 287 295 293 293 294 292 293 292 292 293 288 287 287 289 293 288 287 282 281 281 282 282 281 281 281 282 283 282 281 281 281 282 282 281 281 281 282 282 281 280 280 279 280 279 280 280 280 280 280 280 280 280 280 280 280 280 279 279 278 278 278 278 278 278 279 279 278 278 278 278 277 277 277
286 284 282 281 286 286 290 287 285 289 291 294 291 282 284 295 291 291 291 292 293 293 293 291 288 289 287 290 293 287 283 281 281 281 281 281 281 281 280 280 280 280 281 281 281 281 281 280 280 281 281 281 280 280 279 279 279 279 280 280 279 280 279 280 280 280 281 281 280 280 280 279 279 279 279 279 278 278 278 278 278 278 277 277 277 277 276
285 286 284 285 286 289 289 284 283 285 292 293 285 281 290 290 292 290 292 293 294 294 292 289 289 290 294 288 283 280 280 281 281 280 280 280 280 280 280 281 282 281 281 281 280 279 279 280 280 281 281 281 280 279 279 279 279 279 279 279 280 280 279 279 280 280 280 281 281 280 280 279 280 279 279 279 279 278 278 277 277 276 276 276 276 276 275
284 285 283 284 287 288 287 282 286 289 290 283 284 291 284 290 286 288 292 292 294 292 291 289 292 290 278 279 280 279 279 281 280 280 280 280 280 280 280 280 281 281 280 280 279 279 279 280 280 281 281 280 279 279 279 278 277 279 280 280 280 280 280 280 280 280 280 281 281 281 281 280 279 279 279 279 279 278 278 277 276 276 276 275 275 275 274
286 285 283 282 279 288 289 288 286 286 288 290 290 284 282 282 286 288 287 289 288 287 289 288 287 281 279 280 280 279 279 279 280 279 280 280 280 280 281 281 280 281 280 279 279 279 279 279 280 281 281 279 279 279 279 278 279 280 281 281 281 281 280 280 280 280 281 281 281 281 280 280 280 279 278 278 278 277 277 276 276 275 275 274 273 273 273
282 283 281 282 289 288 291 293 289 289 292 287 285 289 287 282 282 286 287 283 283 283 287 285 282 280 279 279 279 279 279 278 279 278 278 279 279 279 279 280 280 280 280 279 279 278 278 279 279 281 281 280 279 279 278 279 279 280 280 280 281 281 281 280 280 280 280 280 280 280 280 280 279 278 277 277 276 276 276 275 275 274 274 273 273 272 273
288 286 289 288 284 289 290 288 288 293 289 283 284 285 287 286 283 281 285 286 281 282 283 282 283 279 279 280 280 281 280 279 279 280 279 279 280 280 280 279 278 279 280 279 279 278 278 278 278 279 279 280 280 280 280 281 281 281 281 281 281 281 280 280 280 280 279 279 279 279 279 279 278 277 276 276 275 274 275 275 274 274 273 273 272 272 272
286 286 286 285 282 284 286 283 283 283 283 283 284 286 285 285 284 283 285 284 282 281 280 282 278 281 280 280 279 279 279 279 278 277 277 277 277 277 277 278 278 279 279 279 279 279 278 278 279 278 279 281 281 279 279 280 280 280 281 281 281 280 280 279 279 278 278 278 278 278 278 279 278 278 277 276 276 274 274 274 274 274 273 272 272 271 271
289 286 286 284 285 286 286 284 283 283 283 283 283 284 286 285 283 283 281 284 283 282 280 283 282 279 280 280 279 279 278 278 278 278 278 277 277 278 278 278 279 279 279 279 278 278 277 275 276 276 277 277 278 278 278 279 280 280 280 280 279 279 278 278 277 278 278 277 277 276 277 277 277 277 276 276 275 274 273 273 272 272 271 271 270 269 269
287 287 284 284 283 283 285 284 284 284 284 283 283 282 281 283 282 282 281 282 279 279 280 279 280 279 280 280 280 279 280 280 279 278 278 277 277 276 276 277 278 278 279 278 277 276 275 274 273 272 272 273 274 276 277 278 279 280 279 279 278 277 276 276 275 276 276 272 274 275 274 275 275 274 273 274 274 274 273 272 272 270 269 269 269 270 269
285 285 284 282 284 286 286 285 284 284 285 284 282 282 282 282 283 282 282 281 280 280 281 279 280 280 280 281 281 280 279 279 279 279 279 278 277 277 278 276 277 279 278 277 276 275 274 272 271 270 269 268 268 270 272 273 278 278 276 275 274 274 273 274 273 272 273 273 273 273 271 267 266 267 270 270 271 267 266 268 271 271 270 269 269 267 268
285 286 287 284 285 285 286 287 286 285 285 284 282 281 281 282 282 283 283 280 280 280 280 280 281 282 280 280 280 280 280 280 280 279 279 279 279 278 278 279 279 279 278 277 275 274 273 272 270 268 267 265 265 264 265 267 272 273 272 272 271 269 269 270 269 270 269 268 268 269 269 268 269 270 272 275 271 268 266 273 276 277 276 268 266 265 265
285 287 287 288 289 286 286 289 288 287 285 284 282 282 282 282 283 283 283 281 279 279 279 279 281 281 281 280 281 281 280 280 280 280 279 279 278 277 278 278 278 277 276 275 273 271 269 268 266 265 264 262 262 262 263 264 270 272 272 271 270 269 269 268 268 268 267 266 265 266 267 268 268 268 267 271 277 277 276 276 277 278 278 278 277 274 268
286 286 287 288 288 289 288 286 288 287 286 285 284 284 283 282 282 282 283 284 284 280 278 279 280 281 281 281 282 280 279 278 278 278 278 278 277 277 277 277 275 274 274 273 271 268 266 265 264 263 262 261 261 261 261 263 266 270 271 272 270 267 267 266 267 266 265 265 264 265 263 263 266 266 267 266 268 276 277 277 278 278 278 278 278 277 277
288 286 286 287 286 283 283 283 286 287 285 285 284 283 282 281 281 281 282 282 283 281 280 279 279 280 281 281 281 280 278 278 278 277 277 276 276 276 275 275 275 274 272 270 268 266 264 263 263 262 262 261 260 260 261 262 265 268 268 269 267 266 265 265 265 265 265 265 264 264 264 263 263 265 265 265 265 262 268 276 277 277 277 278 278 278 278
284 284 283 282 281 281 283 284 284 284 284 284 283 281 281 282 281 281 281 281 282 282 281 280 279 279 281 280 279 278 277 276 276 277 276 275 274 274 274 272 271 270 269 268 266 264 263 262 262 262 261 259 258 258 259 262 266 267 266 266 266 265 265 265 265 264 263 263 262 262 261 262 262 263 261 262 262 264 263 263 267 270 273 275 275 275 276
283 285 285 285 283 283 282 285 285 285 284 284 284 282 281 280 280 279 277 277 278 279 280 280 279 278 278 278 278 277 276 275 275 275 274 273 272 271 270 270 269 268 266 265 264 263 263 262 262 261 260 258 257 257 258 261 265 265 264 264 263 263 263 263 263 262 262 262 261 260 260 260 261 260 260 258 260 262 262 263 262 259 257 259 268 273 270
283 285 285 286 285 285 285 284 282 285 285 285 284 280 278 278 277 278 278 279 278 277 277 277 277 277 277 277 277 275 275 275 274 272 271 268 268 268 268 267 267 266 265 264 263 262 261 261 261 260 258 257 257 255 257 260 263 263 263 263 262 262 261 261 261 261 260 260 260 260 260 258 258 259 259 260 259 257 257 257 257 256 255 255 258 265 268
282 283 276 278 282 284 282 282 282 283 282 279 279 278 278 279 279 279 278 278 277 276 276 276 276 277 277 276 277 276 274 273 271 269 267 266 266 265 265 264 264 264 263 262 260 260 260 260 260 260 258 256 255 255 257 260 262 262 262 262 262 261 261 259 259 259 258 258 259 260 262 260 259 259 258 258 256 255 255 255 254 252 252 253 254 255 260
279 278 277 278 279 282 283 282 282 281 281 279 280 278 279 280 278 278 277 276 276 277 276 275 276 275 276 276 275 275 273 271 268 265 265 264 264 263 263 263 263 262 261 260 259 258 259 259 259 259 257 255 256 256 257 260 260 260 260 260 260 261 259 259 259 259 260 260 260 261 259 259 258 257 257 256 255 255 256 254 255 253 252 254 257 251 252
274 275 276 277 279 280 282 282 280 279 279 278 279 278 277 278 279 277 275 275 275 275 274 275 274 274 273 272 269 268 267 265 264 263 262 262 261 262 262 264 269 268 265 260 258 257 258 257 258 258 255 253 254 256 259 260 260 260 260 260 260 262 263 263 262 260 259 259 258 258 257 257 256 257 256 256 254 254 253 252 252 252 251 249 250 251 251
274 272 273 274 275 276 275 276 277 277 277 277 277 277 277 278 277 276 275 274 274 274 273 273 273 272 268 266 265 264 263 262 261 259 259 258 257 256 256 257 260 260 258 256 256 256 257 257 257 255 253 253 255 256 258 260 261 262 261 260 261 260 263 264 261 261 258 257 257 257 256 256 254 255 255 254 254 253 252 253 251 250 249 251 251 250 251
275 273 273 272 272 273 275 274 277 276 275 276 278 279 277 277 277 277 276 275 273 272 273 272 269 266 265 265 263 262 261 260 259 259 258 256 255 255 254 255 256 256 255 255 254 254 256 257 256 253 253 253 254 255 256 258 259 260 259 260 260 260 260 261 260 258 257 256 255 255 254 254 254 254 253 253 252 252 251 252 252 250 250 248 248 247 250
280 280 280 277 279 279 277 276 275 275 273 273 272 273 274 273 275 274 273 273 272 272 272 269 266 265 265 265 264 262 263 264 264 261 256 255 254 254 254 255 255 254 253 254 255 254 254 254 253 254 255 255 254 255 256 257 258 258 257 258 258 258 258 257 258 256 256 254 254 255 254 254 253 253 253 253 251 251 251 251 251 250 249 248 248 245 255
265 266 266 271 270 269 274 279 276 274 273 273 268 268 270 269 272 273 271 272 272 271 268 266 266 265 265 264 264 265 268 270 266 259 255 254 253 253 254 254 255 255 255 254 254 254 253 254 254 253 254 254 254 255 255 256 255 256 254 256 256 256 255 255 255 255 255 253 252 253 252 252 251 254 253 251 251 251 250 250 249 249 248 248 248 247 250
261 264 265 264 261 260 264 271 274 274 275 275 274 272 269 268 267 269 270 268 265 265 265 264 264 265 265 265 266 267 264 261 258 256 255 254 254 255 256 256 256 256 255 255 255 253 254 255 257 257 256 256 255 254 255 255 253 253 254 255 255 254 254 254 253 253 252 252 252 251 251 252 252 251 250 249 248 248 248 248 248 248 247 246 246 248 247
256 257 257 258 258 258 260 262 264 270 270 269 268 267 266 264 264 261 262 262 264 263 263 263 263 264 264 261 259 258 258 258 257 256 255 255 255 256 256 256 257 257 258 256 253 254 253 256 256 256 256 255 255 254 255 255 253 252 252 254 253 254 253 253 251 252 250 250 250 251 251 250 248 248 249 247 247 247 247 247 248 247 246 246 247 247 248
257 255 255 256 256 257 257 258 258 263 263 261 259 260 261 261 259 261 261 261 261 262 262 262 262 260 257 257 257 256 255 255 254 254 254 254 255 255 255 256 255 256 256 254 253 252 251 255 255 255 255 255 254 255 256 256 255 252 252 252 252 252 253 252 251 250 249 248 250 248 248 248 248 245 245 245 245 247 247 247 247 246 245 246 245 246 246
258 258 257 257 258 257 257 257 256 256 258 260 258 257 257 258 258 259 259 257 256 258 259 258 258 258 258 256 254 253 253 253 253 253 253 253 253 255 252 249 248 248 249 251 253 251 255 254 252 252 253 253 254 254 255 255 253 251 251 251 250 251 250 250 250 250 249 248 246 246 245 246 246 246 245 244 244 246 248 247 246 248 246 244 244 244 244
258 257 256 256 256 256 256 255 255 255 256 257 258 257 258 259 259 258 257 257 255 256 257 259 260 259 256 255 254 252 250 251 251 252 251 251 251 251 252 251 249 251 253 254 253 251 254 254 251 250 252 252 253 251 254 254 253 250 250 250 249 249 249 249 249 249 247 247 248 250 247 247 247 247 247 246 246 246 245 245 246 246 246 244 243 243 245
257 257 257 256 255 255 254 255 254 254 254 255 256 257 258 259 259 259 257 256 255 256 256 258 258 256 255 254 252 250 250 250 250 250 251 254 255 255 256 251 248 246 249 248 249 251 253 251 251 251 253 253 253 253 250 252 249 248 249 249 248 249 249 248 248 248 248 248 248 246 246 245 247 247 247 246 245 245 245 245 245 245 244 244 245 243 243
257 257 256 256 255 255 254 254 254 254 254 254 254 255 256 256 257 256 255 255 255 255 254 254 255 254 251 251 250 250 249 248 248 247 248 251 252 255 255 250 248 247 253 252 252 252 250 249 251 253 253 253 253 253 252 251 248 248 249 247 248 248 248 248 248 246 246 245 245 243 245 244 244 244 246 246 245 245 244 244 244 244 243 244 245 245 244
255 255 255 254 254 254 253 253 253 252 253 253 253 254 255 256 256 256 255 255 254 253 252 252 252 252 252 252 251 251 249 248 249 249 249 247 244 246 250 252 247 247 253 250 248 248 248 248 252 252 253 253 253 253 253 252 251 251 248 248 248 247 247 247 246 246 244 243 242 241 242 243 242 243 245 244 245 244 245 245 246 246 245 245 245 244 245
254 254 254 254 254 254 254 253 253 253 252 252 253 254 254 254 254 254 254 254 253 254 253 253 253 252 252 252 252 252 251 250 250 249 252 250 251 250 249 249 248 250 252 250 248 248 247 247 248 253 254 254 253 253 252 251 251 250 250 248 247 247 247 247 246 245 245 246 245 244 243 246 245 243 244 245 245 244 244 245 245 245 246 245 244 246 245
254 254 254 254 254 254 253 252 252 251 251 252 252 252 253 253 253 254 254 254 254 254 253 253 253 253 253 252 251 250 250 248 247 249 254 252 253 249 248 251 250 250 250 252 248 247 246 247 253 254 254 254 254 253 252 251 251 251 250 249 249 246 247 247 246 246 246 246 246 246 245 245 245 246 245 246 248 247 246 247 247 247 248 246 247 246 247
253 253 254 253 252 252 252 252 253 253 253 252 252 251 251 251 251 251 252 252 252 251 251 251 251 251 251 251 250 250 249 248 247 245 246 248 250 250 249 249 248 252 252 251 248 247 247 253 254 254 254 254 254 252 250 251 251 250 250 249 248 247 247 246 247 246 246 246 246 246 246 246 245 246 246 246 247 247 248 249 248 247 248 248 247 248 248
253 253 253 253 253 254 254 255 255 255 254 252 251 250 250 250 250 250 250 250 250 250 250 250 249 250 251 251 251 252 252 251 251 249 247 247 250 251 252 252 253 253 251 249 249 248 248 251 254 254 254 254 253 249 249 249 250 249 249 246 246 247 247 246 246 245 245 246 248 249 249 248 246 247 247 248 248 249 247 248 249 249 249 248 248 249 249
253 253 254 254 254 254 254 253 252 251 250 250 250 250 251 251 251 251 251 250 250 250 250 249 248 248 248 247 246 245 247 252 253 251 247 248 248 249 250 249 250 253 253 253 252 253 254 254 254 255 255 254 252 249 250 250 249 249 249 246 245 245 244 246 245 246 246 247 247 246 247 246 249 248 247 247 248 249 248 248 249 249 249 248 249 249 248
254 254 254 254 254 254 253 253 252 252 251 252 252 252 253 253 253 252 252 252 252 251 250 250 249 249 249 249 249 249 247 248 250 251 250 252 253 253 253 253 253 253 251 249 248 247 252 254 254 254 255 254 250 249 247 247 248 249 247 246 246 247 246 246 246 245 246 246 248 247 248 249 247 247 248 248 249 248 248 249 249 248 249 249 249 249 249
253 252 252 252 252 252 253 253 252 252 253 253 253 254 254 254 252 252 252 252 252 251 251 251 251 251 251 251 251 251 252 253 253 252 252 252 252 253 253 253 253 253 252 250 248 250 252 253 253 254 253 252 251 251 249 249 247 248 248 249 249 248 248 249 251 251 248 248 248 248 249 249 249 249 249 247 249 249 249 249 249 250 251 251 250 250 249
252 251 251 251 252 252 252 252 252 253 253 253 253 253 253 252 252 252 252 253 253 252 252 252 251 251 251 252 252 252 252 253 253 253 254 254 254 254 254 254 254 253 254 253 252 252 251 251 249 251 252 252 251 251 251 250 249 249 251 250 249 249 249 250 249 249 248 249 249 249 249 248 248 248 248 249 249 249 249 249 249 249 249 249 249 249 249
253 253 252 252 252 252 252 252 253 253 253 253 254 254 254 253 252 252 251 252 252 252 253 253 251 251 251 251 251 252 253 253 253 254 254 254 254 254 254 254 253 253 252 252 252 250 251 250 251 252 252 251 251 250 251 252 251 250 250 250 250 250 250 249 249 248 248 249 249 249 250 249 248 249 249 249 249 249 249 249 249 249 249 249 249 249 249
Wind_Speed
16 17 15 9 8 13 15 19 18 17 17 13 17 20 24 13 13 21 21 9 18 23 16 14 10 8 9 11 10 12 8 3 5 7 6 6 9 7 5 9 8 10 11 10 9 8 10 9 11 12 10 11 10 9 9 9 10 11 10 10 11 12 12 13 13 11 10 10 9 10 10 10 10 10 10 9 9 8 8 8 7 8 7 8 8 7 6
15 15 16 8 13 7 6 13 18 18 19 20 23 26 27 24 18 18 22 10 18 21 7 13 13 9 9 5 6 2 2 7 9 8 8 9 10 10 10 10 11 10 11 7 7 8 9 12 12 12 12 12 12 12 12 10 11 9 10 11 12 11 12 12 9 9 10 9 10 9 9 10 9 9 9 9 9 9 9 8 8 7 7 7 7 8 8
11 17 17 10 11 10 10 7 10 15 18 23 27 27 24 17 17 21 22 20 19 18 7 6 6 7 5 5 6 11 12 10 10 12 12 10 11 11 11 9 10 9 7 7 7 10 12 13 15 14 13 11 10 11 10 10 11 10 10 11 11 11 11 8 8 8 9 9 9 9 9 8 7 9 9 9 9 9 9 8 8 8 8 8 8 7 7
11 15 18 14 3 3 7 7 8 13 19 22 21 18 15 12 19 23 19 17 22 13 12 8 8 5 8 10 12 12 11 10 10 11 11 10 11 11 12 12 9 7 8 8 10 13 14 13 12 12 12 11 9 12 10 10 9 8 10 11 11 11 9 8 8 10 9 9 10 9 9 8 8 8 8 8 9 8 8 8 7 7 8 9 7 7 6
12 18 8 2 4 1 7 13 19 24 23 20 12 12 15 21 22 17 16 23 24 11 4 5 5 6 9 11 11 11 12 11 8 8 9 11 11 12 13 12 10 9 9 11 11 12 10 11 12 14 10 9 13 11 10 9 8 10 11 10 10 10 8 8 8 8 9 10 10 9 9 9 8 9 9 9 9 9 9 8 7 8 9 9 9 7 8
9 14 3 4 5 13 16 18 23 18 20 16 12 16 22 20 14 15 18 20 19 12 8 9 9 10 11 14 14 10 8 6 6 8 8 11 13 10 9 8 9 10 7 8 9 10 10 9 8 6 9 11 8 7 9 8 11 11 11 10 10 9 8 8 9 9 9 10 10 10 9 9 9 9 9 10 9 8 8 8 9 8 8 9 8 8 8
11 3 7 4 13 15 18 11 3 10 13 13 23 26 20 17 17 16 17 19 21 19 7 10 11 10 11 11 9 5 2 4 6 10 12 9 6 9 9 9 10 9 10 8 7 6 6 4 4 7 7 8 7 8 9 10 10 10 10 10 9 9 9 8 9 9 11 11 11 10 9 9 10 10 11 9 10 9 9 10 11 10 10 9 8 7 6
1 3 7 10 14 6 5 5 6 1 10 18 15 16 18 16 16 18 21 26 26 22 17 12 8 7 7 5 6 5 5 8 11 9 9 7 6 9 8 8 8 6 7 8 8 8 4 6 6 8 9 8 9 8 8 9 9 9 9 9 9 8 9 9 10 10 11 10 9 9 9 8 9 9 9 10 10 7 7 6 5 5 5 6 8 8 7
9 8 13 17 5 11 9 6 7 13 13 10 16 15 18 16 15 18 22 27 25 20 14 13 10 2 4 8 11 6 8 13 8 8 10 7 8 5 5 3 6 5 6 6 7 4 4 5 6 6 6 8 8 8 8 7 8 8 9 9 9 8 9 9 10 10 10 10 9 8 9 9 9 8 8 8 7 6 7 7 7 7 7 7 6 7 8
11 11 11 6 8 13 16 24 2 3 5 8 11 12 17 11 16 19 19 22 21 16 15 14 9 2 6 14 15 6 11 2 1 4 3 4 4 4 6 5 4 4 3 1 0 3 4 4 5 6 7 9 9 8 8 7 8 7 8 8 7 8 8 8 9 9 9 9 10 9 9 10 9 7 5 4 6 6 7 6 6 5 5 5 4 6 8
7 10 10 10 10 14 13 16 4 6 9 14 7 8 15 17 15 19 20 18 15 15 15 19 3 2 9 15 14 3 4 0 1 2 3 3 3 3 3 4 5 2 1 2 4 5 6 6 5 7 8 10 9 8 7 7 7 8 8 7 8 8 7 6 6 7 8 9 9 9 9 9 9 9 9 8 6 6 6 6 6 5 5 5 5 5 7
11 12 12 12 8 11 12 5 4 6 9 13 11 10 11 21 5 11 10 14 18 18 18 11 6 10 9 15 11 4 2 0 0 0 2 3 4 3 3 3 1 2 2 5 5 5 6 5 6 8 8 9 8 8 7 7 7 8 7 6 5 5 6 7 7 7 7 9 8 9 8 6 6 7 6 7 7 7 5 5 5 5 5 6 8 7 5
14 16 11 5 7 6 7 4 2 4 11 15 12 17 17 3 10 10 15 19 20 18 13 8 9 13 13 4 3 2 0 2 1 1 0 1 1 1 2 2 3 5 5 5 5 4 5 7 7 7 8 9 8 7 8 7 7 6 5 6 7 7 7 7 7 7 6 8 9 7 8 8 7 7 6 7 7 6 6 5 5 5 6 6 6 6 5
14 13 15 13 7 5 5 0 12 10 8 7 16 8 0 9 5 10 16 16 17 12 10 9 12 6 3 5 1 3 2 3 1 0 0 2 3 2 2 3 5 6 6 7 7 6 4 7 7 8 8 9 8 8 7 6 5 6 7 7 8 8 9 8 8 8 8 6 7 8 7 8 8 6 5 6 7 7 6 6 7 7 6 6 6 5 4
9 7 11 8 12 7 12 14 3 2 10 10 6 2 1 0 5 9 6 9 6 6 8 8 5 5 4 4 4 3 3 4 3 3 3 4 4 4 4 4 3 7 8 7 6 6 5 5 6 6 9 9 7 7 8 6 6 7 8 8 8 9 8 8 8 8 8 9 8 7 7 8 8 8 6 6 6 6 7 6 7 7 7 6 5 5 5
11 14 13 10 11 3 13 17 12 11 13 2 4 8 4 1 3 7 7 5 5 6 6 8 5 3 4 2 5 4 3 3 3 3 3 3 3 4 3 4 5 8 9 7 7 5 4 4 5 6 9 9 7 7 6 5 7 7 7 8 8 8 8 8 8 8 8 8 7 7 8 7 7 7 7 7 6 6 6 6 6 6 5 5 5 5 6
14 11 11 2 1 12 10 4 5 10 7 3 5 1 4 7 5 3 4 8 5 6 6 5 7 4 4 4 6 6 6 4 5 5 4 4 5 5 6 5 4 5 10 9 8 7 5 5 4 4 5 9 8 8 5 6 7 8 8 8 8 8 8 8 8 7 6 6 6 6 6 8 8 7 6 7 6 4 6 6 6 6 6 5 6 6 4
1 2 0 1 1 3 5 1 1 2 5 2 3 6 5 3 3 7 6 6 7 6 5 8 2 5 6 6 4 3 4 4 3 3 3 3 4 4 5 5 5 7 8 8 9 9 7 5 5 4 4 5 8 5 4 5 5 7 8 8 8 8 7 6 6 7 7 5 5 5 6 5 6 6 8 7 6 6 5 5 5 5 4 4 4 4 5
8 10 6 5 4 3 5 3 0 1 0 2 2 2 1 3 6 5 1 5 8 8 7 7 7 5 6 6 4 4 4 4 4 4 4 4 4 4 5 4 7 8 9 10 9 8 8 5 6 6 6 7 5 5 5 5 6 6 7 7 6 6 6 6 5 6 7 6 6 5 5 4 4 5 5 5 5 5 5 5 4 4 4 5 4 4 6
7 1 0 3 3 4 3 3 3 3 2 0 1 1 2 4 4 2 2 4 5 5 5 4 7 7 6 8 7 6 5 5 5 4 5 5 5 4 4 4 5 7 8 10 9 9 8 6 6 7 7 7 6 6 5 4 6 7 7 7 7 7 7 6 6 6 6 7 7 5 4 4 5 5 4 5 5 6 6 6 6 5 6 5 6 6 5
2 2 2 2 4 3 4 4 4 2 1 3 3 2 3 4 6 6 4 2 6 6 5 5 6 9 6 6 8 8 6 5 5 5 5 5 5 6 7 5 5 8 8 10 9 10 8 6 7 8 8 7 6 6 4 3 6 8 8 7 7 7 6 6 6 5 6 6 6 6 6 6 5 3 5 5 6 3 1 3 6 6 6 5 5 3 5
3 7 6 7 1 4 5 5 4 3 2 3 3 2 2 3 7 6 8 4 3 3 4 7 8 9 8 6 7 8 7 7 6 6 6 6 6 5 5 6 8 9 8 11 11 10 7 6 6 8 8 6 5 6 4 2 6 9 8 8 8 6 6 6 6 6 6 6 6 6 7 7 7 6 6 7 4 5 1 1 3 3 5 4 4 4 4
7 4 4 9 7 2 5 9 10 10 8 7 7 7 7 5 4 7 9 8 3 3 2 3 6 7 10 8 6 7 6 6 6 7 8 8 7 7 7 10 9 10 9 10 12 12 8 6 8 7 7 5 5 5 4 3 5 8 9 8 7 6 6 6 6 6 6 6 5 6 6 7 7 7 7 7 9 8 7 6 5 4 5 5 7 7 6
4 2 5 7 6 8 3 3 8 10 9 10 9 6 5 7 8 7 6 8 11 6 3 2 3 6 7 8 9 8 6 6 7 7 6 6 7 7 6 9 11 12 11 9 11 10 6 6 7 6 7 5 5 4 4 3 4 7 7 9 8 6 6 5 6 5 6 6 6 6 6 5 7 7 7 7 6 8 9 7 7 7 6 5 5 5 6
6 3 5 6 4 1 2 2 3 6 8 9 9 10 10 8 5 5 6 4 2 10 9 5 2 4 8 7 6 9 8 6 6 7 8 7 6 8 9 9 10 10 9 8 8 7 7 6 7 6 8 5 4 4 4 3 5 8 7 9 9 7 6 6 6 6 6 6 6 6 6 6 5 6 7 7 8 5 5 8 11 11 10 10 9 9 10
2 4 4 4 3 2 1 4 3 4 7 6 4 3 3 4 5 5 3 2 4 3 6 8 7 4 6 8 7 8 9 8 7 8 8 8 8 8 8 9 9 8 9 8 8 7 7 7 7 6 7 4 5 4 4 4 7 9 8 8 7 7 7 7 7 6 6 6 6 5 5 5 6 6 5 6 7 8 8 7 6 8 11 13 11 11 12
2 7 9 6 3 1 2 5 4 7 7 5 5 5 5 5 5 4 4 4 4 3 4 5 6 7 6 5 8 5 10 9 7 7 7 8 9 8 7 7 9 10 10 10 8 7 7 7 7 8 6 4 4 4 4 4 8 9 9 8 7 7 9 7 6 7 6 6 6 6 6 6 6 6 5 4 6 8 8 7 7 6 1 5 10 12 8
5 4 1 6 7 8 6 7 1 5 7 6 5 6 5 6 5 5 4 5 5 5 5 5 8 10 9 5 9 9 7 8 9 7 8 8 7 7 8 9 9 10 9 9 8 6 6 7 7 8 5 3 4 3 2 4 8 9 8 8 7 7 6 7 7 6 6 6 5 6 6 6 5 5 6 6 6 5 4 4 6 6 4 3 1 5 11
5 4 2 1 2 1 4 6 5 6 5 3 4 5 7 7 4 4 3 3 4 5 6 3 3 4 9 8 7 10 8 8 8 8 8 7 6 7 8 9 9 8 9 9 7 6 6 7 7 7 3 2 3 2 1 4 7 7 7 7 7 7 6 5 5 6 6 5 5 5 6 6 6 6 6 6 7 6 7 6 6 4 5 1 1 2 5
1 1 2 2 2 6 8 4 5 5 5 4 7 4 4 7 7 4 4 4 3 6 5 5 6 6 5 8 6 9 12 10 10 9 8 6 6 6 8 9 10 8 8 8 6 5 6 6 6 7 2 1 1 1 3 5 6 6 7 6 6 7 6 6 6 6 6 6 6 7 6 5 5 6 6 6 5 6 7 6 5 6 5 3 4 3 2
4 3 4 3 4 1 5 7 4 4 4 3 5 6 3 3 6 6 5 4 3 4 4 5 7 8 6 6 7 7 8 9 9 8 7 6 5 4 5 4 9 11 9 8 6 5 7 6 5 5 0 1 0 1 4 6 7 7 7 6 6 8 10 9 7 6 6 7 6 6 6 6 5 7 7 7 6 6 6 6 6 5 6 4 4 4 1
7 5 5 3 2 4 4 3 6 5 6 4 6 8 9 10 9 9 6 6 6 6 7 7 9 9 7 8 9 10 9 9 9 8 6 6 4 3 3 2 5 8 9 8 5 5 5 6 7 2 1 1 1 2 3 6 5 7 7 6 7 6 6 8 6 6 6 7 6 6 7 7 6 6 6 6 6 6 5 6 5 4 4 5 3 1 0
6 3 1 1 1 1 4 4 7 7 6 8 9 7 6 5 5 8 9 8 7 5 6 7 6 8 9 10 10 11 10 9 8 8 7 6 5 4 5 5 7 8 8 5 4 3 3 6 5 1 2 2 3 3 3 4 4 6 6 6 6 6 5 6 6 7 6 6 6 6 5 6 6 6 6 6 5 6 5 5 5 4 3 4 2 0 2
10 8 6 9 12 12 11 8 6 6 5 3 2 4 5 5 5 6 6 6 6 7 8 8 9 9 10 11 12 12 13 13 9 8 8 7 5 5 5 6 7 8 7 5 6 5 4 4 3 3 3 4 4 4 5 4 5 5 5 6 6 6 6 6 6 6 6 7 6 6 5 6 5 6 6 6 4 5 6 4 5 5 4 1 0 1 5
2 1 1 2 1 2 0 6 10 9 8 8 4 4 4 4 6 7 6 9 10 7 6 8 8 9 11 11 10 12 10 10 10 11 8 7 6 6 6 9 9 9 9 7 5 4 3 3 4 4 5 5 6 5 5 5 4 6 5 6 6 6 5 6 5 5 6 6 5 6 5 5 4 4 5 5 4 5 4 5 3 4 3 2 1 0 2
6 2 3 5 5 4 3 1 4 8 11 11 9 8 7 6 6 8 9 6 5 8 9 9 9 9 9 10 11 9 6 7 9 9 8 8 7 6 7 9 10 10 9 7 5 4 3 4 6 6 5 5 5 5 5 5 5 6 5 6 6 6 7 6 6 6 6 6 6 5 5 5 4 6 5 4 4 4 5 4 3 2 3 2 1 0 0
8 6 5 5 5 4 4 5 2 1 1 2 4 5 6 4 5 4 6 7 7 7 8 9 10 9 8 4 5 7 6 7 7 8 8 7 6 6 8 7 6 8 8 8 1 3 3 5 6 7 5 5 5 5 5 6 6 6 5 6 6 6 6 6 6 6 5 4 5 6 6 6 4 4 5 4 4 2 3 3 3 2 1 1 1 0 1
5 7 6 6 5 5 6 4 4 4 8 8 6 5 5 5 5 6 6 6 6 6 6 5 7 8 8 7 7 7 7 6 7 8 8 7 6 9 6 7 6 5 6 5 3 4 3 4 6 5 5 5 5 4 6 8 6 6 6 6 6 6 7 6 6 7 6 5 6 5 5 5 5 4 2 2 2 2 3 2 3 2 1 1 1 1 2
7 6 6 6 5 7 6 7 8 8 6 8 6 7 5 7 6 8 8 6 4 4 7 8 8 9 8 10 9 6 6 5 6 8 9 7 5 8 8 5 3 3 1 2 5 4 4 3 5 6 5 5 5 5 6 7 7 6 6 6 5 6 6 6 6 6 6 6 5 4 4 3 3 3 2 2 2 2 3 3 1 3 1 1 1 2 1
6 7 8 7 8 7 8 9 10 9 8 7 5 5 2 7 8 9 8 7 5 4 5 6 8 9 8 9 9 8 5 5 6 9 10 8 10 11 8 6 5 5 3 5 5 3 5 5 5 5 5 4 5 4 4 5 6 6 6 6 6 6 6 6 5 6 4 4 4 4 3 3 2 3 3 3 2 2 2 2 1 2 1 1 2 2 3
7 7 7 7 6 7 7 10 11 12 11 9 8 6 4 3 7 10 9 8 5 5 5 5 7 8 7 8 9 9 7 6 6 7 5 7 8 7 8 5 1 2 3 4 4 4 6 5 4 5 5 4 4 4 4 5 6 6 6 6 6 6 6 4 4 4 6 4 5 4 4 3 2 2 3 1 2 1 1 1 2 2 2 3 4 2 3
6 6 7 7 7 7 6 6 7 10 10 9 11 10 8 5 5 10 9 7 7 7 9 9 9 10 10 10 10 10 9 6 6 7 7 6 4 6 8 2 1 1 3 6 5 5 4 4 4 4 3 3 4 5 5 6 5 6 6 5 5 5 5 4 5 4 3 3 3 4 4 3 4 2 1 2 1 2 2 2 2 3 3 3 4 5 4
7 6 6 6 6 6 5 6 8 8 8 8 8 8 8 5 5 7 8 8 8 8 10 9 10 11 10 10 11 11 8 5 7 6 8 6 4 2 2 6 4 2 6 6 4 5 5 3 4 3 4 5 4 6 6 5 4 4 5 5 5 4 4 4 4 3 4 4 4 3 3 3 3 3 3 3 5 3 2 3 5 5 4 4 5 4 4
6 5 5 5 6 5 5 5 6 6 8 8 7 7 8 8 6 8 10 11 10 8 9 9 9 10 8 8 9 9 6 5 5 5 7 6 7 8 6 6 4 5 6 6 4 5 5 3 3 5 7 7 7 6 5 4 4 4 3 4 4 4 4 3 2 3 4 3 4 5 4 4 3 4 3 3 3 3 3 5 4 5 5 5 4 5 5
6 5 6 6 6 6 5 5 6 8 6 5 7 9 9 8 7 6 7 10 11 10 9 9 8 8 7 8 8 6 5 4 2 1 6 5 7 2 1 4 5 4 6 6 5 5 4 3 5 6 5 6 6 5 4 4 3 3 3 3 3 2 2 2 3 2 3 2 2 3 4 3 4 3 4 4 5 4 4 5 5 5 6 5 5 5 6
5 6 6 7 8 7 5 5 4 4 5 7 10 10 9 7 7 8 9 11 12 9 8 8 9 8 9 9 8 7 7 6 5 4 3 1 4 6 5 5 5 5 6 7 4 5 3 5 6 6 6 5 5 5 3 3 4 3 3 2 2 3 2 2 2 3 2 3 3 3 3 4 3 4 5 5 5 5 5 6 6 5 6 6 5 6 6
5 6 7 6 6 5 3 3 4 5 6 8 10 8 6 6 7 7 9 11 11 11 9 7 9 9 7 5 5 6 7 7 7 6 5 4 6 7 6 6 6 6 6 5 5 3 3 3 4 5 5 6 5 3 3 2 2 2 2 1 1 2 3 2 3 4 3 3 4 4 5 5 5 5 5 4 5 5 5 5 6 6 6 7 5 7 6
7 7 7 7 7 7 7 7 7 7 9 9 7 6 5 5 6 8 7 9 10 9 8 8 8 7 7 6 5 4 2 3 8 5 3 5 5 5 5 4 5 5 6 5 5 3 4 4 5 5 5 5 4 2 2 2 2 2 2 2 3 4 3 5 3 3 3 3 3 3 5 4 5 5 5 5 6 6 6 6 6 6 6 6 6 6 6
8 8 8 8 9 9 8 7 7 7 7 5 6 6 6 7 8 7 8 9 10 9 9 10 9 8 6 7 6 6 3 2 2 6 2 2 3 3 4 5 6 6 5 3 2 0 2 3 3 3 3 3 2 2 2 2 2 3 3 4 4 4 4 4 4 3 4 3 4 5 5 5 5 5 6 6 6 6 7 7 7 7 6 6 6 7 6
9 8 8 8 8 8 7 6 7 6 5 4 4 4 3 5 8 6 6 6 7 6 8 7 7 7 7 7 7 6 7 8 9 8 6 4 4 4 4 4 3 3 4 2 1 0 1 1 1 1 2 2 2 2 2 3 3 3 4 5 3 3 4 5 4 4 4 5 4 4 5 5 6 6 7 5 6 6 6 7 6 8 9 8 7 7 6
8 8 8 7 7 7 8 8 6 5 5 6 6 5 5 6 7 5 5 5 5 7 7 6 6 6 6 6 5 6 6 6 5 5 4 3 3 3 3 2 2 2 2 2 1 0 0 0 0 1 1 1 2 2 3 3 4 3 3 3 3 3 4 5 5 4 4 5 5 5 6 6 6 6 6 6 6 6 7 7 7 6 6 6 6 6 6
10 8 6 7 7 7 7 7 7 7 6 6 6 6 6 6 6 6 6 7 6 7 6 6 7 6 5 5 5 6 5 5 3 3 3 3 2 3 3 4 3 2 2 2 1 1 1 1 1 2 2 1 2 2 3 4 3 3 3 4 4 4 5 6 6 5 5 5 6 6 6 6 6 6 6 6 6 7 6 6 6 6 6 6 6 6 6
Wind_Direction
233 233 234 166 189 186 191 200 193 192 195 181 194 218 229 209 209 231 249 157 224 247 222 218 212 200 204 214 223 219 230 284 271 273 298 292 283 271 233 243 234 230 230 225 217 211 211 204 209 209 208 208 206 207 204 195 189 193 179 178 186 188 189 194 194 184 176 179 183 180 179 177 175 172 166 161 159 159 162 165 170 172 169 165 160 164 164
232 242 245 178 198 214 204 198 198 194 186 192 203 218 222 219 224 237 252 207 230 243 222 207 218 214 217 217 241 307 284 249 255 273 275 270 264 267 259 245 238 234 236 228 215 207 209 210 210 208 208 208 204 201 201 193 190 189 172 187 188 191 196 198 188 176 175 176 179 176 174 178 173 161 160 159 160 163 171 173 166 160 159 160 165 172 166
236 241 245 217 205 209 221 223 208 197 195 201 208 216 226 222 240 246 250 259 267 257 144 208 222 221 247 276 272 251 248 253 255 257 260 259 256 257 261 259 247 237 229 223 213 211 216 211 211 208 209 206 199 203 201 191 190 184 176 185 193 192 196 188 179 168 172 179 171 174 174 163 159 162 163 163 164 167 169 167 163 159 156 164 174 171 172
240 245 240 233 198 233 244 237 208 214 209 215 217 218 218 199 220 232 244 256 254 261 135 191 200 174 197 222 232 238 245 241 240 243 248 252 257 258 257 257 256 244 225 219 216 219 219 215 210 206 207 199 191 206 193 190 185 169 180 188 191 194 189 178 174 173 174 168 168 170 165 168 164 163 159 162 168 169 166 162 160 155 166 176 168 168 169
232 243 250 175 138 162 264 240 230 217 217 217 220 223 219 214 210 220 225 235 244 230 149 172 227 186 217 231 235 241 242 243 240 240 238 242 250 250 249 252 256 250 238 229 225 228 224 216 208 211 194 181 202 196 183 185 159 175 185 187 188 188 182 174 171 167 166 166 168 167 171 167 162 160 164 166 167 167 171 168 155 165 175 168 175 170 172
238 252 89 130 121 218 232 235 230 220 221 209 207 220 220 222 203 218 223 239 251 250 216 218 224 200 216 225 233 227 236 238 235 240 232 233 236 248 258 256 256 259 254 247 234 230 227 220 211 193 184 193 189 171 170 161 172 178 179 184 182 182 171 171 165 164 166 167 169 169 166 165 162 164 165 172 171 168 158 157 168 171 174 177 171 176 178
231 216 108 199 220 229 235 260 293 214 217 194 210 225 222 219 218 233 251 256 257 248 222 219 230 224 234 245 250 260 209 199 228 244 250 241 240 248 251 257 252 246 250 256 257 251 240 207 173 163 181 177 154 159 165 168 174 171 178 175 178 175 172 167 162 165 168 172 169 163 166 163 163 167 170 168 168 169 170 174 174 177 176 175 178 171 171
252 137 196 237 233 237 351 275 238 259 196 204 207 238 238 223 214 215 232 241 246 249 243 245 244 233 253 288 256 223 228 218 228 237 252 261 234 241 238 243 260 256 254 250 249 249 196 170 177 177 178 160 156 163 156 162 164 168 168 174 175 168 169 165 167 170 167 165 164 165 161 159 164 170 173 172 169 161 159 160 151 147 159 164 173 174 177
218 209 218 235 307 323 281 273 227 183 197 179 188 222 243 219 212 205 222 235 242 249 255 255 261 292 341 294 272 166 214 235 230 226 245 246 265 276 281 236 256 243 243 238 240 204 165 172 162 167 145 145 142 141 151 156 156 160 165 173 175 171 167 166 167 166 164 161 159 148 155 161 169 169 169 167 163 154 159 164 168 175 173 179 175 174 186
202 222 238 237 230 239 248 239 253 114 183 169 178 200 254 240 213 218 216 231 239 243 252 256 253 85 302 279 270 187 230 262 318 288 295 318 297 290 284 282 264 275 298 302 5 144 136 129 136 132 138 138 136 141 145 145 150 156 165 175 169 166 166 165 164 162 160 152 151 159 161 168 169 162 145 135 146 149 156 155 164 173 177 176 174 185 195
186 217 234 229 225 238 234 256 174 183 154 153 151 176 239 245 213 209 208 223 235 235 237 247 136 128 248 259 267 229 197 15 44 303 306 296 282 285 286 283 295 334 48 105 110 106 117 122 131 132 132 131 132 137 141 146 150 158 173 171 169 172 164 154 148 146 145 147 152 157 164 168 163 160 164 162 152 151 159 164 173 162 165 176 193 200 207
210 218 226 229 216 238 246 216 205 184 153 116 116 204 236 246 162 183 176 200 224 231 231 224 151 196 239 248 264 165 169 209 236 218 311 331 342 345 355 8 47 101 93 92 85 101 113 124 125 125 127 126 129 134 140 144 155 170 174 159 141 126 130 141 143 146 150 150 155 159 158 146 148 154 143 140 154 159 159 162 161 164 176 189 201 212 199
219 219 238 262 268 264 240 189 179 142 147 139 177 216 230 138 150 176 165 195 214 225 224 174 193 216 217 224 126 151 172 151 61 350 315 263 264 334 41 58 82 76 64 80 95 104 117 125 125 125 124 121 126 134 142 152 170 159 142 130 133 133 131 134 138 142 146 152 153 156 154 155 152 146 153 154 147 154 161 161 165 175 188 196 207 215 199
216 215 223 229 258 239 169 305 147 159 117 205 213 225 131 155 164 175 185 189 212 211 207 181 213 216 96 161 121 103 101 144 177 184 92 84 72 59 74 86 96 92 84 86 88 82 99 122 126 127 124 122 130 139 146 156 155 141 134 134 133 135 140 144 148 149 151 150 149 149 144 139 145 149 153 153 161 166 166 169 181 190 191 199 206 216 206
224 213 233 226 236 246 153 112 58 279 192 226 183 129 334 68 187 165 200 201 214 155 204 210 190 117 119 129 153 140 147 140 144 138 123 119 118 116 105 84 79 109 98 92 96 109 116 122 129 131 125 127 136 141 147 161 149 140 138 138 138 139 141 145 151 152 151 152 148 148 151 154 156 163 161 161 161 163 166 169 181 189 195 195 200 215 218
210 206 216 213 214 144 144 148 186 202 213 173 190 141 177 250 165 181 173 216 191 188 181 179 192 179 138 138 132 140 126 138 134 126 125 122 117 99 85 112 125 110 105 106 103 98 103 114 125 131 131 132 138 141 153 150 136 133 135 137 136 139 145 149 149 153 157 156 151 151 154 155 158 156 162 165 161 168 166 169 175 187 197 189 200 217 225
207 211 222 215 223 166 188 167 199 201 181 122 172 131 144 161 227 185 173 195 185 187 166 156 164 161 213 176 177 152 181 150 152 145 149 146 141 135 126 120 115 109 120 119 109 90 80 86 85 100 125 132 135 135 149 137 139 138 138 137 140 145 148 151 153 149 145 147 150 154 155 156 156 153 150 150 152 158 159 171 177 190 200 188 204 219 227
55 354 115 105 63 235 225 232 214 173 151 162 131 154 143 233 175 169 178 170 165 169 164 133 189 194 171 151 156 131 138 149 129 120 102 91 92 99 101 98 101 109 104 99 100 97 70 58 64 69 80 115 126 130 122 123 126 132 136 139 143 146 140 137 137 135 137 138 141 146 150 157 157 157 158 165 163 160 165 177 183 188 193 176 206 213 231
172 238 171 177 216 220 203 199 263 273 348 165 156 161 230 150 150 170 272 161 161 164 162 161 170 168 166 150 148 144 136 145 154 134 134 108 104 117 114 122 122 113 112 103 98 93 82 47 58 52 64 54 72 97 104 113 117 120 121 119 114 108 114 111 117 133 137 144 137 130 136 122 118 129 134 146 143 149 162 168 167 179 177 181 196 204 225
218 286 97 250 281 257 229 170 180 215 230 58 64 54 57 103 101 95 140 112 114 133 163 175 146 156 161 154 157 156 162 159 152 151 137 130 101 85 103 115 106 100 101 109 105 96 83 63 63 64 60 54 42 53 63 86 110 111 112 120 126 127 125 129 129 132 127 123 124 113 99 106 112 103 99 130 146 159 173 173 174 189 185 198 202 209 221
301 331 255 289 315 290 249 222 227 227 175 149 59 47 91 114 117 111 103 114 155 165 167 149 141 139 177 168 163 156 157 149 152 155 143 125 126 123 120 115 110 112 118 106 104 98 91 81 82 76 67 55 36 41 41 73 118 112 111 108 108 107 109 107 99 90 104 106 115 115 104 79 53 87 132 131 132 94 51 164 173 174 189 202 206 208 187
245 219 237 126 157 271 280 264 216 217 228 125 124 113 124 136 138 151 132 96 114 138 159 159 157 152 163 169 162 162 164 161 149 138 129 123 118 108 96 106 107 106 106 113 110 101 87 84 77 73 68 55 39 17 18 27 111 114 115 106 100 96 98 103 106 103 99 98 106 115 118 115 103 65 74 104 120 136 167 128 169 178 143 176 194 167 167
240 231 217 193 195 197 205 206 192 178 181 160 164 185 185 193 173 160 141 131 124 128 134 169 156 156 157 168 157 147 151 147 144 138 139 136 131 123 127 112 107 107 110 108 107 95 85 83 76 78 71 40 36 19 19 12 105 118 116 105 102 102 102 106 116 117 115 106 103 109 117 120 112 108 81 56 74 87 109 117 117 124 138 136 147 152 150
249 231 195 176 176 216 243 220 185 182 171 170 184 190 186 179 176 178 176 168 154 165 164 147 177 163 153 154 151 140 119 120 124 121 108 109 119 121 112 120 123 119 116 112 110 112 107 96 91 82 74 44 31 12 11 20 87 108 113 117 117 117 110 117 105 104 106 112 112 107 96 103 121 127 119 101 66 73 86 96 107 110 110 110 112 136 169
225 210 175 191 185 113 5 304 213 179 171 169 174 186 185 178 186 179 174 192 177 154 157 164 129 144 148 142 142 142 139 129 125 121 117 113 110 115 119 118 122 121 118 110 107 106 105 101 91 83 77 42 16 16 9 25 99 100 105 113 119 119 120 112 108 108 111 112 115 120 131 127 131 136 136 137 120 88 53 89 93 89 89 89 85 85 78
119 111 103 85 79 72 95 70 44 164 180 178 155 152 163 165 163 162 171 133 137 143 143 143 134 125 138 138 125 121 111 120 128 125 119 119 117 112 113 118 116 109 110 108 105 107 102 99 98 90 77 31 10 358 357 39 83 95 99 101 114 129 134 133 122 121 119 126 122 121 124 126 134 133 143 144 142 137 121 108 74 56 55 53 55 63 61
107 145 115 62 33 302 265 156 202 193 184 178 160 152 145 125 126 113 79 67 67 77 120 129 123 119 97 105 111 110 128 127 112 107 112 107 104 106 115 113 114 117 115 112 108 105 108 104 96 85 72 14 351 350 357 60 93 93 99 102 102 97 105 116 119 125 127 123 127 127 125 125 127 123 125 122 135 141 151 149 143 118 64 7 23 55 59
161 186 98 151 194 198 219 230 313 157 164 174 159 129 125 113 113 116 108 96 82 80 80 109 130 127 119 132 125 113 107 119 123 120 108 101 101 104 107 111 113 114 112 108 110 109 104 102 97 92 63 351 354 337 22 92 99 104 107 111 109 112 109 108 110 114 115 116 118 120 120 121 118 120 120 120 114 117 107 103 117 117 90 33 356 8 51
201 183 46 1 293 133 81 77 83 114 124 81 85 101 122 125 130 128 129 114 123 120 113 100 79 116 135 141 138 132 129 127 126 126 116 107 107 106 106 106 103 102 106 107 101 103 105 103 105 99 77 346 347 353 76 104 110 115 117 116 114 112 108 107 111 109 108 104 106 111 112 113 113 104 94 91 93 93 94 102 100 93 113 68 40 359 46
158 73 64 76 112 127 115 108 142 147 141 146 143 151 161 143 147 170 150 143 161 145 142 130 120 117 134 130 137 146 148 146 133 119 113 111 109 111 115 117 102 89 91 90 104 109 111 114 114 113 127 326 332 49 103 102 97 100 101 106 111 120 123 128 119 116 113 111 110 104 102 103 99 105 104 102 104 113 116 118 122 116 99 82 88 97 76
99 71 74 87 93 92 138 155 138 146 140 141 150 148 151 156 159 152 160 156 131 138 151 150 137 128 120 118 104 90 90 105 113 113 105 102 102 111 135 152 141 153 152 147 136 126 121 121 116 118 135 324 332 107 121 109 115 109 105 103 104 114 120 119 114 116 119 118 114 110 106 104 117 116 119 118 115 109 109 114 111 110 117 111 107 103 137
92 56 62 39 52 111 103 122 143 162 171 156 142 169 177 166 173 178 169 173 184 163 149 140 149 144 128 113 109 107 107 108 108 104 101 88 72 36 27 41 64 87 110 122 127 135 131 123 116 117 2 356 41 72 100 116 117 113 115 119 113 112 107 107 103 107 108 112 114 112 120 120 114 115 116 122 132 131 135 124 122 128 131 122 115 148 256
109 88 20 44 51 73 162 194 169 179 169 178 196 186 179 188 168 167 173 162 139 155 163 149 130 125 129 125 120 119 116 112 104 103 104 94 76 58 55 64 90 106 104 102 109 105 108 114 118 68 42 40 57 61 69 85 100 112 115 110 108 103 102 101 109 107 98 96 101 113 115 110 120 116 124 125 125 124 121 121 126 127 119 130 149 269 267
178 184 198 192 176 179 184 200 207 184 200 221 187 165 171 178 160 152 145 148 146 152 166 153 144 140 139 137 132 133 134 124 126 126 97 113 112 100 89 92 98 98 93 87 78 74 66 74 72 64 52 59 59 58 65 72 90 95 103 106 107 106 99 101 102 104 107 101 104 99 102 109 108 120 123 124 124 125 125 129 132 130 126 132 253 274 302
349 260 280 253 340 2 258 177 175 186 178 181 213 215 180 155 152 155 151 155 167 164 131 127 137 134 117 122 132 150 159 150 146 142 142 134 132 128 125 115 107 98 87 68 64 62 60 70 74 75 72 63 62 56 64 74 82 92 84 91 91 94 98 96 93 99 110 115 111 107 105 104 105 105 109 117 121 119 119 124 129 133 138 149 228 347 340
1 9 23 19 12 1 358 318 199 185 179 186 184 175 170 166 146 149 160 156 107 114 131 134 135 134 139 144 150 159 137 118 127 130 133 136 141 138 128 118 117 109 104 85 44 41 32 56 61 69 70 71 66 58 63 76 76 84 92 94 96 95 88 86 87 85 86 100 97 96 103 102 101 97 100 98 100 105 118 120 128 126 147 162 180 100 319
26 22 5 7 360 11 23 31 32 125 155 124 130 138 139 126 126 96 89 106 120 126 135 135 135 143 143 116 86 81 88 116 131 133 134 134 135 126 120 114 107 124 123 116 94 45 29 56 65 66 72 77 76 72 70 73 83 86 92 93 98 98 100 93 87 92 85 78 95 98 93 88 84 82 86 111 112 121 121 135 133 143 157 176 171 191 248
22 31 18 10 354 18 28 12 348 72 105 85 51 64 92 105 93 102 99 95 105 124 129 125 123 115 110 101 87 89 99 103 117 123 126 125 131 116 101 104 113 114 107 129 127 82 64 70 72 78 80 76 75 74 75 77 84 85 89 92 99 103 102 107 101 96 93 85 86 89 100 107 116 110 95 89 120 131 140 150 159 168 185 199 198 200 215
20 20 22 11 16 23 22 19 26 31 49 103 102 81 70 92 96 98 93 83 65 88 108 114 121 113 110 110 109 97 90 106 118 122 120 113 103 98 92 74 55 57 100 106 98 91 84 74 83 80 78 79 78 73 75 73 73 83 88 96 93 98 101 103 108 106 99 99 97 97 101 110 123 135 143 153 153 143 148 165 174 185 186 202 192 223 227
22 23 19 19 28 21 40 41 36 42 40 45 72 81 88 110 106 104 99 85 56 78 108 132 128 124 120 116 116 111 105 101 112 112 112 110 104 101 95 57 32 33 71 87 93 98 94 87 84 80 80 72 78 79 74 81 83 91 94 95 99 96 98 105 106 108 108 109 114 114 122 133 146 143 152 153 157 158 182 198 197 201 217 227 230 237 238
21 22 27 34 33 34 43 39 46 22 25 42 36 31 23 72 115 105 97 98 85 78 78 88 108 102 107 113 111 111 105 94 90 96 111 109 96 93 102 100 17 35 58 90 99 95 87 86 90 86 77 76 76 86 96 70 77 92 93 99 102 108 109 111 116 127 135 138 144 156 166 161 147 149 157 162 187 198 204 203 209 217 207 229 249 240 237
10 31 37 42 35 31 24 43 39 44 36 28 20 18 31 22 67 100 101 94 83 74 75 65 77 105 110 107 106 100 91 82 77 55 48 64 91 112 105 135 176 109 95 90 86 87 81 79 75 82 85 84 85 88 88 80 87 89 93 93 100 107 116 116 119 125 119 130 145 154 151 151 154 172 189 182 216 220 222 227 237 244 240 232 235 239 231
6 23 36 46 44 37 36 32 43 64 59 36 29 23 29 36 50 82 83 74 78 80 75 71 87 94 102 108 108 98 91 87 85 85 70 51 60 15 120 135 140 129 97 96 91 85 84 86 85 93 94 94 99 99 85 85 88 90 95 100 105 106 106 116 122 130 136 138 147 158 157 162 176 182 200 215 222 227 225 232 238 248 243 236 237 243 239
7 22 42 53 51 47 42 44 54 50 57 42 19 37 41 28 4 22 75 87 85 73 88 92 93 97 96 102 102 102 99 94 95 98 101 88 62 39 47 96 121 106 96 92 90 92 90 94 97 102 101 100 99 92 90 92 96 99 106 104 109 110 115 112 126 142 157 172 177 183 186 189 196 203 207 228 243 244 238 238 246 243 248 246 244 242 246
16 27 39 51 57 58 44 43 56 70 81 76 56 47 39 35 33 50 72 86 87 87 87 90 92 92 93 85 85 90 96 88 83 114 107 100 89 72 44 81 95 93 97 99 97 102 107 106 110 106 105 104 101 97 97 102 102 112 116 118 120 122 134 153 168 185 185 192 195 191 191 204 210 209 216 229 232 238 244 238 243 236 235 244 242 240 242
28 34 46 56 57 60 59 66 77 91 89 84 73 53 41 33 31 28 40 74 82 67 66 78 85 90 99 103 101 101 101 84 62 42 57 143 151 156 142 118 111 109 107 108 106 110 125 116 107 111 115 116 110 100 100 107 107 107 115 121 137 153 179 194 187 197 202 200 207 206 212 218 212 226 220 224 232 236 247 243 247 248 237 239 241 243 245
46 51 49 58 70 78 81 78 68 61 64 64 62 61 39 34 43 55 62 70 77 78 71 55 56 52 44 69 96 108 102 88 56 42 39 53 81 97 121 118 115 112 109 110 117 124 123 110 116 122 127 129 118 109 113 117 120 139 143 158 176 199 203 203 210 210 215 219 218 216 217 218 221 230 232 236 238 240 243 244 249 251 247 243 246 246 251
50 51 48 50 59 57 58 58 57 54 54 58 76 83 73 63 65 68 67 76 75 70 63 63 61 55 50 48 39 42 47 83 85 38 24 76 82 88 95 105 110 111 106 99 98 113 125 128 134 130 132 132 123 137 140 141 155 162 177 197 204 211 220 223 230 225 223 227 229 230 241 244 240 234 233 231 240 240 239 238 246 254 250 242 246 244 246
46 51 54 54 54 55 55 56 63 66 65 68 76 85 85 85 81 66 62 64 67 64 59 57 57 51 51 48 44 39 41 12 118 140 142 87 94 96 93 94 96 93 86 99 106 48 81 116 126 152 152 141 138 153 164 174 177 194 201 211 219 220 217 221 230 219 216 229 229 228 234 234 237 228 235 236 239 240 238 241 243 241 248 248 250 249 245
51 47 45 33 34 34 37 47 54 56 60 55 57 62 73 82 73 49 53 53 68 78 67 56 53 45 45 40 43 41 39 52 65 67 71 71 83 75 77 76 88 111 112 116 115 144 261 163 152 165 173 168 166 170 176 198 199 213 217 223 226 233 229 231 234 224 219 229 233 233 236 235 236 234 234 237 241 241 240 241 243 246 248 248 250 251 250
52 55 51 44 48 46 39 43 46 42 47 49 52 58 61 59 70 63 48 43 65 65 68 62 48 34 18 35 44 42 42 49 56 70 73 62 64 74 75 84 80 77 95 100 105 157 135 94 160 217 205 207 200 203 203 209 215 219 225 230 232 236 240 241 236 240 240 232 233 234 237 239 237 238 240 240 242 245 245 244 246 246 245 245 247 249 251
72 70 66 65 62 59 53 46 39 38 37 40 54 64 64 66 71 66 50 27 41 46 41 76 56 21 22 24 22 29 40 44 44 56 55 56 44 48 42 49 41 46 27 18 2 3 343 349 290 274 251 242 226 228 236 235 234 239 240 237 237 238 237 237 236 238 243 239 237 240 242 240 237 241 247 243 244 245 249 248 249 250 250 249 247 248 252